SCP
0 0 0 0 0 0 0 0 0 0 0 0 -0 -0 -0 -0 -0 -0 -0 -0 -0 -0 -0 -0 0 0 0 0 0 0 0 0 0 0 -0 0 0 0 0 0 0 0 0
0 0 0 0 0 0 0 0 0 0 0 0 -0 -0 -0 -0 -0 -0 -0 -0 -0 -0 0 0 0 0 0 0 0 0 0 0 0 -0 -0 0 0 0 0 0 0 0 0
0 0 0 0 0 0 0 0 0 0 0 -0 -0 -0 -0 -0 -0 -0 -0 -0 -0 -0 0 0 0 0 0 0 0 0 0 -0 -0 -0 -0 0 -0 0 0 0 0 0 0
0 0 0 0 0 0 0 0 0 0 -0 -0 -0 -0 -0 -0 -0 -0 -0 -0 -0 -0 -0 -0 0 0 0 0 0 -0 -0 -0 -0 -0 0 0 0 0 0 0 0 0 0
0 0 0 0 0 0 0 0 0 -0 -0 -0 -0 0 0 0 0 0 0 -0 -0 -0 -0 0 0 0 0 0 0 0 -0 -0 -0 -0 0 0 0 0 0 0 0 0 0
0 0 0 0 0 0 0 0 -0 -0 -0 -0 0 0 0 0 0 0 0 0 0 0 0 0 0 0 0 0 0 0 -0 0 0 0 0 0 0 0 0 0 0 0 0
0 0 0 0 0 0 0 0 -0 -0 -0 -0 0 0 0 0 0 0 0 0 0 0 0 0 0 0 0 0 0 0 -0 -0 -0 0 0 0 0 0 0 0 0 0 0
0 0 0 0 0 0 0 -0 -0 -0 -0 -0 -0 0 0 0 0 0 0 0 0 0 0 0 0 0 0 0 0 -0 -0 -0 -0 0 -0 0 0 0 0 0 0 0 0
0 0 0 0 0 -0 -0 -0 -0 -0 -0 -0 0 0 0 0 0 0 0 0 0 0 0 0 0 0 0 0 0 -0 -0 -0 -0 -0 -0 0 0 0 0 0 0 0 0
-0 -0 -0 -0 -0 -0 -0 -0 -0 -0 -0 0 0 0 0 0 0 0 0 0 0 0 0 0 0 -0 -0 -0 0 -0 -0 0 -0 -0 0 0 0 0 0 0 0 0 0
-0 -0 -0 -0 -0 -0 -0 -0 -0 -0 0 -0 -0 0 0 -0 0 0 0 0 0 0 0 0 0 -0 -0 0 0 -0 0 0 -0 0 0 0 0 0 0 0 0 0 0
-0 -0 -0 -0 -0 -0 -0 -0 0 0 0 0 0 0 0 0 0 0 0 0 0 0 0 0 0 0 0 0 0 0 0 0 -0 0 0 0 0 0 0 0 0 0 0
-0 -0 -0 -0 0 -0 -0 0 0 0 0 0 0 0 0 0 0 0 0 0 0 0 0 0 0 0 0 0 0 0 0 0 0 0 0 0 0 0 0 0 0 0 0
-0 -0 -0 -0 0 0 0 0 0 0 0 0 0 0 0 0 0 0 0 0 0 0 0 0 0 0 0 0 0 0 0 0 0 0 0 0 0 0 0 0 0 0 0
-0 -0 -0 -0 -0 0 0 0 0 0 0 0 0 0 0 0 1 0 0 0 0 0 0 0 0 0 0 0 0 0 0 0 0 0 0 0 0 0 0 0 0 0 0
-0 -0 -0 -0 -0 0 0 0 0 0 0 0 0 0 0 0 0 0 0 0 0 0 0 0 0 0 0 0 0 0 0 0 0 0 0 0 0 0 0 0 0 0 0
-0 -0 -0 -0 0 0 0 0 0 0 0 0 0 0 0 0 0 0 0 0 0 0 0 0 0 0 0 0 0 0 0 0 0 0 0 0 0 0 0 0 0 0 0
-0 -0 0 0 0 0 0 0 0 0 0 -0 -0 0 0 0 0 0 0 0 0 0 0 0 0 0 0 0 0 0 0 0 0 0 0 0 0 0 0 0 0 0 0
-0 -0 0 0 0 0 0 0 0 0 0 0 0 0 0 0 0 0 0 0 0 0 0 0 0 0 0 0 0 0 0 0 0 0 0 0 0 0 0 0 0 0 0
0 0 0 0 1 0 0 0 0 0 0 0 0 0 0 0 0 0 0 0 0 0 0 0 0 0 0 0 0 0 0 0 0 0 0 0 0 0 0 0 0 0 0
0 0 0 0 0 0 0 0 0 0 0 0 0 0 0 0 0 0 0 0 0 0 0 0 0 0 0 0 0 0 0 0 0 0 0 0 0 0 0 0 0 0 0
1 1 0 0 0 0 0 0 0 0 0 0 0 0 0 0 0 0 0 0 0 0 0 0 0 0 0 0 0 0 0 0 0 0 0 0 0 0 0 0 0 0 0
0 0 0 0 0 0 0 0 0 0 0 0 0 0 0 0 0 0 0 0 0 0 0 0 0 0 0 0 0 0 0 0 0 0 0 0 0 0 0 0 0 0 0
0 0 0 0 0 0 0 0 0 0 0 0 0 0 0 0 0 0 0 0 0 0 0 0 0 0 0 0 0 0 0 0 0 0 0 0 0 0 0 0 0 0 0
0 0 0 0 0 0 0 0 0 0 0 0 0 0 0 0 0 0 0 0 0 0 0 0 0 0 0 0 0 0 0 0 0 0 0 0 0 0 0 0 0 0 0
0 0 0 0 0 0 0 0 0 0 0 0 0 0 0 0 0 0 0 0 0 0 0 0 0 0 0 0 0 0 0 0 0 0 0 0 0 0 0 0 0 0 0
Wind_Speed_500mb
46 52 51 47 43 39 36 29 25 23 21 19 17 16 14 11 10 11 11 14 16 17 18 20 21 23 23 23 23 22 22 23 23 20 20 24 23 19 17 16 11 21 23
51 55 52 47 43 38 33 28 23 20 19 18 16 12 10 11 10 11 14 16 16 17 19 20 22 23 24 24 24 24 24 25 27 27 25 17 18 21 18 20 20 21 24
49 53 54 47 42 37 31 27 23 20 18 17 14 12 12 12 13 14 16 17 16 17 19 20 22 24 27 26 25 25 25 26 26 33 29 14 23 24 22 24 24 23 22
49 53 52 45 38 35 30 25 23 21 20 15 14 15 13 14 16 17 17 16 15 16 19 19 22 26 30 31 31 31 32 32 33 32 18 16 20 22 21 24 24 24 19
47 48 49 42 36 31 27 23 21 20 18 16 15 14 14 16 17 17 16 15 18 20 22 24 26 29 33 35 37 38 38 37 36 30 19 18 13 22 22 21 24 24 19
44 45 39 39 34 30 27 23 21 19 18 17 17 13 15 16 16 15 16 18 22 24 27 25 27 32 36 39 41 41 39 33 34 23 20 17 19 21 22 20 20 20 19
40 38 40 40 31 26 24 21 22 19 17 15 14 12 15 15 14 14 18 23 24 24 25 25 28 31 35 38 41 43 39 34 32 25 23 15 28 23 21 19 18 17 18
38 34 40 31 31 25 22 22 20 17 15 13 11 10 13 14 15 15 17 20 22 20 21 21 22 22 26 31 37 43 43 35 25 24 20 22 28 26 24 22 18 17 16
50 49 33 34 33 28 23 21 19 16 12 11 9 11 13 14 13 12 13 13 14 14 13 14 13 14 19 26 33 39 37 34 34 25 24 12 35 25 21 23 23 21 19
29 42 35 33 32 26 25 21 18 15 11 10 9 12 13 13 11 9 7 2 3 4 6 8 9 13 19 30 36 40 33 34 36 24 22 29 37 27 24 20 21 22 21
31 31 33 32 27 20 10 16 13 13 12 10 10 13 20 12 9 13 12 5 6 7 9 11 13 16 25 30 32 40 34 28 26 28 24 30 36 29 29 29 25 23 23
30 31 27 30 30 30 15 19 15 20 12 11 9 8 10 4 3 3 9 14 15 16 16 20 21 22 25 22 23 30 27 32 29 28 32 36 37 30 32 33 33 32 28
22 24 22 26 31 21 17 17 15 12 11 8 8 10 4 1 5 5 9 14 15 23 15 21 21 19 23 24 25 25 28 29 29 27 36 40 34 29 32 35 34 33 33
20 19 20 23 31 19 18 18 19 14 14 11 2 5 7 3 5 5 8 14 19 18 23 21 24 27 26 27 30 28 29 29 30 25 39 41 40 30 29 33 35 35 34
25 23 23 25 26 26 24 23 22 18 16 9 2 14 15 12 16 7 21 18 23 23 23 26 29 27 30 31 32 34 30 30 29 27 27 42 40 41 40 38 38 38 38
27 26 29 28 27 27 26 29 28 25 15 12 28 20 28 27 30 40 35 22 31 27 29 26 28 32 32 33 34 32 34 33 33 30 26 42 45 40 43 42 41 43 44
27 28 31 30 28 29 31 26 26 22 27 20 30 35 32 28 25 22 27 24 31 36 27 26 30 29 31 36 35 36 37 37 37 37 34 30 37 40 36 43 50 47 48
26 28 29 28 29 30 31 32 23 28 43 41 28 30 8 1 9 12 15 13 16 17 22 25 27 30 33 34 39 38 39 40 40 39 40 36 28 32 38 41 42 50 53
26 28 27 28 31 30 31 25 23 20 22 22 13 6 9 8 6 1 7 11 18 20 24 27 27 33 38 42 45 42 43 47 43 42 42 40 31 34 27 38 45 41 37
25 27 26 27 35 29 28 25 25 25 15 9 7 3 4 5 6 2 11 18 23 22 27 29 34 37 43 47 47 45 47 44 45 47 34 31 32 30 29 32 40 37 45
25 27 32 31 30 17 14 13 14 17 15 10 6 4 2 4 7 16 11 19 24 27 29 34 40 42 40 39 44 45 44 45 41 30 43 33 27 34 36 38 40 40 41
24 27 22 24 25 21 19 18 15 15 11 13 8 4 4 10 10 12 20 23 25 31 36 38 38 40 35 34 39 45 49 48 37 30 33 38 47 41 41 42 42 42 40
26 26 25 27 26 25 25 20 17 14 9 6 2 3 11 10 13 19 24 28 32 34 37 38 36 33 35 35 32 38 47 45 50 46 46 47 50 45 41 43 44 42 43
32 33 33 33 29 24 20 16 14 7 8 7 2 7 9 17 21 27 30 33 34 36 37 35 31 30 32 34 36 36 39 44 51 58 46 43 43 47 47 49 45 44 46
37 36 32 28 23 21 19 15 11 8 6 3 2 10 14 18 23 27 30 32 36 36 35 33 32 29 30 35 37 38 36 36 37 45 55 51 48 46 44 43 40 46 47
35 32 30 28 25 23 21 20 17 11 5 1 6 11 14 20 21 24 29 33 35 34 31 29 29 29 31 32 32 27 31 35 39 42 47 50 53 51 45 43 47 48 51
Wind_Direction_500mb
152 160 156 149 146 145 143 139 134 128 126 125 121 116 109 98 89 83 68 71 75 73 65 59 55 51 47 43 39 36 30 30 25 24 33 18 356 329 342 341 360 350 3
153 159 155 153 151 149 144 137 131 133 132 130 129 126 118 107 93 86 87 89 85 74 63 54 51 50 47 41 36 35 31 34 35 40 53 11 12 349 345 340 344 348 352
150 158 156 158 158 154 146 142 142 143 139 138 140 136 123 114 107 105 103 94 77 65 57 49 48 46 43 38 31 28 27 29 37 50 45 41 341 345 6 2 358 355 348
154 160 158 157 161 154 150 149 149 147 144 147 148 136 124 119 120 114 101 85 70 61 62 60 57 52 51 47 43 39 36 40 50 49 31 37 9 350 13 1 358 4 2
154 153 154 156 162 156 154 151 145 147 142 147 142 133 130 129 121 108 93 84 82 77 72 68 66 61 56 51 49 46 43 53 44 38 23 37 29 352 7 8 2 2 359
156 159 154 157 161 157 157 151 140 146 146 151 147 137 136 131 117 105 99 96 91 88 86 77 70 64 59 51 42 36 34 51 43 31 24 17 18 8 357 357 1 1 1
155 151 162 162 153 164 151 142 146 152 150 148 149 141 132 121 109 102 100 96 92 87 82 76 68 65 56 43 38 31 24 33 38 23 24 351 6 12 5 2 352 352 350
140 169 160 147 154 152 146 150 149 150 151 150 141 137 129 119 114 115 110 102 97 91 84 78 71 64 44 32 25 23 22 32 36 9 19 355 6 8 5 3 3 351 346
171 152 151 143 153 153 148 148 151 150 148 144 142 142 126 119 110 112 112 116 100 90 80 73 63 41 25 20 14 13 24 24 19 355 353 315 348 353 359 358 358 357 353
114 129 146 152 148 149 155 155 152 153 142 139 134 131 109 96 88 86 74 85 80 58 38 20 3 1 2 6 360 359 23 9 351 351 333 316 326 329 333 337 337 337 339
123 135 141 144 139 125 120 146 149 149 144 129 106 108 86 67 33 359 311 291 291 322 332 332 336 343 2 359 345 351 2 343 357 344 317 308 320 316 311 309 311 315 317
127 133 136 138 135 132 139 128 130 105 101 105 106 105 86 168 286 267 334 327 321 315 326 331 335 355 350 330 330 332 332 335 341 339 309 304 319 315 309 304 300 302 305
133 143 157 157 142 135 139 124 117 115 104 101 87 102 274 151 284 335 332 324 321 315 329 319 322 321 321 328 323 328 328 330 325 326 308 304 310 310 310 308 306 297 295
136 153 162 161 136 141 133 134 127 119 91 83 44 38 304 287 295 306 316 307 313 308 308 312 313 313 321 322 321 323 323 323 316 324 308 305 308 302 306 307 305 302 300
152 162 155 150 152 148 136 130 129 126 150 125 301 296 258 231 226 270 293 313 304 303 307 308 310 306 314 316 309 314 314 316 311 312 301 302 305 301 301 300 302 303 301
155 157 153 157 155 144 146 150 141 107 69 2 306 312 294 270 280 288 298 274 269 296 299 304 305 319 316 313 310 309 309 310 305 301 299 301 302 305 299 296 296 300 304
161 163 159 159 153 151 159 164 152 170 227 292 269 313 311 263 262 276 263 267 281 288 304 308 310 310 312 310 305 305 303 301 297 298 300 294 296 306 304 301 295 292 294
169 173 165 162 159 165 188 192 208 289 228 292 291 303 296 170 282 266 294 316 282 305 305 308 314 314 315 313 310 303 304 302 296 293 298 292 272 284 311 309 303 291 294
182 179 177 168 171 186 193 208 236 232 261 290 285 241 328 327 308 325 267 280 308 311 309 317 312 317 313 311 309 300 299 300 295 292 291 286 284 281 275 301 315 314 311
184 182 184 171 191 211 206 219 240 256 233 165 155 216 95 326 295 312 298 308 322 318 313 306 310 308 309 306 303 298 305 300 296 295 291 280 283 288 299 294 304 309 300
172 175 207 186 187 178 179 181 163 152 155 155 165 189 4 280 333 312 308 313 316 313 309 311 307 306 307 305 301 301 302 305 301 299 293 285 285 290 296 301 302 303 305
168 172 186 159 158 158 164 158 152 163 165 175 165 279 310 305 334 333 317 316 309 312 311 307 304 302 303 305 303 302 307 306 302 302 307 300 298 290 292 299 305 304 303
160 155 149 152 154 158 162 160 157 168 181 168 295 332 301 317 323 324 316 311 309 309 307 304 303 296 301 299 301 301 305 304 305 300 299 295 293 295 296 299 301 303 306
148 147 150 150 157 156 154 168 172 190 173 161 199 261 293 313 320 317 314 313 308 306 305 303 300 288 298 298 300 296 297 298 303 306 300 297 295 297 299 298 297 300 304
146 147 151 150 149 145 147 151 156 153 116 146 299 313 309 306 311 309 309 304 302 301 296 289 289 287 288 294 298 300 299 300 302 302 305 302 297 295 295 297 298 300 301
152 152 151 149 145 141 138 133 138 122 110 222 308 314 310 319 316 314 313 311 305 298 294 288 283 283 279 284 296 299 297 302 302 303 305 303 303 298 297 300 299 299 300
Wind_Speed_850mb
46 52 51 47 43 39 36 29 25 23 21 19 17 16 14 11 10 11 11 14 16 17 18 20 21 23 23 23 23 22 22 23 23 20 20 24 23 19 17 16 11 21 23
51 55 52 47 43 38 33 28 23 20 19 18 16 12 10 11 10 11 14 16 16 17 19 20 22 23 24 24 24 24 24 25 27 27 25 17 18 21 18 20 20 21 24
49 53 54 47 42 37 31 27 23 20 18 17 14 12 12 12 13 14 16 17 16 17 19 20 22 24 27 26 25 25 25 26 26 33 29 14 23 24 22 24 24 23 22
49 53 52 45 38 35 30 25 23 21 20 15 14 15 13 14 16 17 17 16 15 16 19 19 22 26 30 31 31 31 32 32 33 32 18 16 20 22 21 24 24 24 19
47 48 49 42 36 31 27 23 21 20 18 16 15 14 14 16 17 17 16 15 18 20 22 24 26 29 33 35 37 38 38 37 36 30 19 18 13 22 22 21 24 24 19
44 45 39 39 34 30 27 23 21 19 18 17 17 13 15 16 16 15 16 18 22 24 27 25 27 32 36 39 41 41 39 33 34 23 20 17 19 21 22 20 20 20 19
40 38 40 40 31 26 24 21 22 19 17 15 14 12 15 15 14 14 18 23 24 24 25 25 28 31 35 38 41 43 39 34 32 25 23 15 28 23 21 19 18 17 18
38 34 40 31 31 25 22 22 20 17 15 13 11 10 13 14 15 15 17 20 22 20 21 21 22 22 26 31 37 43 43 35 25 24 20 22 28 26 24 22 18 17 16
50 49 33 34 33 28 23 21 19 16 12 11 9 11 13 14 13 12 13 13 14 14 13 14 13 14 19 26 33 39 37 34 34 25 24 12 35 25 21 23 23 21 19
29 42 35 33 32 26 25 21 18 15 11 10 9 12 13 13 11 9 7 2 3 4 6 8 9 13 19 30 36 40 33 34 36 24 22 29 37 27 24 20 21 22 21
31 31 33 32 27 20 10 16 13 13 12 10 10 13 20 12 9 13 12 5 6 7 9 11 13 16 25 30 32 40 34 28 26 28 24 30 36 29 29 29 25 23 23
30 31 27 30 30 30 15 19 15 20 12 11 9 8 10 4 3 3 9 14 15 16 16 20 21 22 25 22 23 30 27 32 29 28 32 36 37 30 32 33 33 32 28
22 24 22 26 31 21 17 17 15 12 11 8 8 10 4 1 5 5 9 14 15 23 15 21 21 19 23 24 25 25 28 29 29 27 36 40 34 29 32 35 34 33 33
20 19 20 23 31 19 18 18 19 14 14 11 2 5 7 3 5 5 8 14 19 18 23 21 24 27 26 27 30 28 29 29 30 25 39 41 40 30 29 33 35 35 34
25 23 23 25 26 26 24 23 22 18 16 9 2 14 15 12 16 7 21 18 23 23 23 26 29 27 30 31 32 34 30 30 29 27 27 42 40 41 40 38 38 38 38
27 26 29 28 27 27 26 29 28 25 15 12 28 20 28 27 30 40 35 22 31 27 29 26 28 32 32 33 34 32 34 33 33 30 26 42 45 40 43 42 41 43 44
27 28 31 30 28 29 31 26 26 22 27 20 30 35 32 28 25 22 27 24 31 36 27 26 30 29 31 36 35 36 37 37 37 37 34 30 37 40 36 43 50 47 48
26 28 29 28 29 30 31 32 23 28 43 41 28 30 8 1 9 12 15 13 16 17 22 25 27 30 33 34 39 38 39 40 40 39 40 36 28 32 38 41 42 50 53
26 28 27 28 31 30 31 25 23 20 22 22 13 6 9 8 6 1 7 11 18 20 24 27 27 33 38 42 45 42 43 47 43 42 42 40 31 34 27 38 45 41 37
25 27 26 27 35 29 28 25 25 25 15 9 7 3 4 5 6 2 11 18 23 22 27 29 34 37 43 47 47 45 47 44 45 47 34 31 32 30 29 32 40 37 45
25 27 32 31 30 17 14 13 14 17 15 10 6 4 2 4 7 16 11 19 24 27 29 34 40 42 40 39 44 45 44 45 41 30 43 33 27 34 36 38 40 40 41
24 27 22 24 25 21 19 18 15 15 11 13 8 4 4 10 10 12 20 23 25 31 36 38 38 40 35 34 39 45 49 48 37 30 33 38 47 41 41 42 42 42 40
26 26 25 27 26 25 25 20 17 14 9 6 2 3 11 10 13 19 24 28 32 34 37 38 36 33 35 35 32 38 47 45 50 46 46 47 50 45 41 43 44 42 43
32 33 33 33 29 24 20 16 14 7 8 7 2 7 9 17 21 27 30 33 34 36 37 35 31 30 32 34 36 36 39 44 51 58 46 43 43 47 47 49 45 44 46
37 36 32 28 23 21 19 15 11 8 6 3 2 10 14 18 23 27 30 32 36 36 35 33 32 29 30 35 37 38 36 36 37 45 55 51 48 46 44 43 40 46 47
35 32 30 28 25 23 21 20 17 11 5 1 6 11 14 20 21 24 29 33 35 34 31 29 29 29 31 32 32 27 31 35 39 42 47 50 53 51 45 43 47 48 51
Wind_Direction_850mb
152 160 156 149 146 145 143 139 134 128 126 125 121 116 109 98 89 83 68 71 75 73 65 59 55 51 47 43 39 36 30 30 25 24 33 18 356 329 342 341 360 350 3
153 159 155 153 151 149 144 137 131 133 132 130 129 126 118 107 93 86 87 89 85 74 63 54 51 50 47 41 36 35 31 34 35 40 53 11 12 349 345 340 344 348 352
150 158 156 158 158 154 146 142 142 143 139 138 140 136 123 114 107 105 103 94 77 65 57 49 48 46 43 38 31 28 27 29 37 50 45 41 341 345 6 2 358 355 348
154 160 158 157 161 154 150 149 149 147 144 147 148 136 124 119 120 114 101 85 70 61 62 60 57 52 51 47 43 39 36 40 50 49 31 37 9 350 13 1 358 4 2
154 153 154 156 162 156 154 151 145 147 142 147 142 133 130 129 121 108 93 84 82 77 72 68 66 61 56 51 49 46 43 53 44 38 23 37 29 352 7 8 2 2 359
156 159 154 157 161 157 157 151 140 146 146 151 147 137 136 131 117 105 99 96 91 88 86 77 70 64 59 51 42 36 34 51 43 31 24 17 18 8 357 357 1 1 1
155 151 162 162 153 164 151 142 146 152 150 148 149 141 132 121 109 102 100 96 92 87 82 76 68 65 56 43 38 31 24 33 38 23 24 351 6 12 5 2 352 352 350
140 169 160 147 154 152 146 150 149 150 151 150 141 137 129 119 114 115 110 102 97 91 84 78 71 64 44 32 25 23 22 32 36 9 19 355 6 8 5 3 3 351 346
171 152 151 143 153 153 148 148 151 150 148 144 142 142 126 119 110 112 112 116 100 90 80 73 63 41 25 20 14 13 24 24 19 355 353 315 348 353 359 358 358 357 353
114 129 146 152 148 149 155 155 152 153 142 139 134 131 109 96 88 86 74 85 80 58 38 20 3 1 2 6 360 359 23 9 351 351 333 316 326 329 333 337 337 337 339
123 135 141 144 139 125 120 146 149 149 144 129 106 108 86 67 33 359 311 291 291 322 332 332 336 343 2 359 345 351 2 343 357 344 317 308 320 316 311 309 311 315 317
127 133 136 138 135 132 139 128 130 105 101 105 106 105 86 168 286 267 334 327 321 315 326 331 335 355 350 330 330 332 332 335 341 339 309 304 319 315 309 304 300 302 305
133 143 157 157 142 135 139 124 117 115 104 101 87 102 274 151 284 335 332 324 321 315 329 319 322 321 321 328 323 328 328 330 325 326 308 304 310 310 310 308 306 297 295
136 153 162 161 136 141 133 134 127 119 91 83 44 38 304 287 295 306 316 307 313 308 308 312 313 313 321 322 321 323 323 323 316 324 308 305 308 302 306 307 305 302 300
152 162 155 150 152 148 136 130 129 126 150 125 301 296 258 231 226 270 293 313 304 303 307 308 310 306 314 316 309 314 314 316 311 312 301 302 305 301 301 300 302 303 301
155 157 153 157 155 144 146 150 141 107 69 2 306 312 294 270 280 288 298 274 269 296 299 304 305 319 316 313 310 309 309 310 305 301 299 301 302 305 299 296 296 300 304
161 163 159 159 153 151 159 164 152 170 227 292 269 313 311 263 262 276 263 267 281 288 304 308 310 310 312 310 305 305 303 301 297 298 300 294 296 306 304 301 295 292 294
169 173 165 162 159 165 188 192 208 289 228 292 291 303 296 170 282 266 294 316 282 305 305 308 314 314 315 313 310 303 304 302 296 293 298 292 272 284 311 309 303 291 294
182 179 177 168 171 186 193 208 236 232 261 290 285 241 328 327 308 325 267 280 308 311 309 317 312 317 313 311 309 300 299 300 295 292 291 286 284 281 275 301 315 314 311
184 182 184 171 191 211 206 219 240 256 233 165 155 216 95 326 295 312 298 308 322 318 313 306 310 308 309 306 303 298 305 300 296 295 291 280 283 288 299 294 304 309 300
172 175 207 186 187 178 179 181 163 152 155 155 165 189 4 280 333 312 308 313 316 313 309 311 307 306 307 305 301 301 302 305 301 299 293 285 285 290 296 301 302 303 305
168 172 186 159 158 158 164 158 152 163 165 175 165 279 310 305 334 333 317 316 309 312 311 307 304 302 303 305 303 302 307 306 302 302 307 300 298 290 292 299 305 304 303
160 155 149 152 154 158 162 160 157 168 181 168 295 332 301 317 323 324 316 311 309 309 307 304 303 296 301 299 301 301 305 304 305 300 299 295 293 295 296 299 301 303 306
148 147 150 150 157 156 154 168 172 190 173 161 199 261 293 313 320 317 314 313 308 306 305 303 300 288 298 298 300 296 297 298 303 306 300 297 295 297 299 298 297 300 304
146 147 151 150 149 145 147 151 156 153 116 146 299 313 309 306 311 309 309 304 302 301 296 289 289 287 288 294 298 300 299 300 302 302 305 302 297 295 295 297 298 300 301
152 152 151 149 145 141 138 133 138 122 110 222 308 314 310 319 316 314 313 311 305 298 294 288 283 283 279 284 296 299 297 302 302 303 305 303 303 298 297 300 299 299 300